FW8409 Weather Reports


time (UTC)temp
C
wind
direction
speed
KPH
gust
KPH
rain 1hr
cm
rain 24hr
cm
rain mn
cm
humidity
%
barometer
mb
20260505124914 12 264 0.0 0.0 0.00 0.00 0.00 88 1018.9
20260505123913 12 264 0.0 0.0 0.00 0.00 0.00 88 1019.2
20260505122911 12 264 0.0 0.0 0.00 0.00 0.00 88 1018.9
20260505121911 12 263 0.0 0.0 0.00 0.00 0.00 88 1018.9
20260505120910 12 263 0.0 0.0 0.00 0.00 0.00 88 1018.9
20260505115905 12 262 0.0 0.0 0.00 0.00 0.00 87 1018.8
20260505114900 12 262 0.0 0.0 0.00 0.00 0.00 87 1018.8
20260505113859 12 256 0.0 0.0 0.00 0.00 0.00 87 1018.8
20260505112857 12 257 0.0 0.0 0.00 0.00 0.00 87 1018.7
20260505111855 12 257 0.0 0.0 0.00 0.00 0.00 87 1018.7
20260505110853 12 263 0.0 0.0 0.00 0.00 0.00 87 1018.8
20260505101844 12 262 0.0 0.0 0.00 0.00 0.00 86 1018.1
20260505100841 12 262 0.0 0.0 0.00 0.00 0.00 86 1018.4
20260505095839 12 262 0.0 0.0 0.00 0.00 0.00 86 1018.3
20260505094839 12 262 0.0 0.0 0.00 0.00 0.00 86 1018.3
20260505093837 12 262 0.0 0.0 0.00 0.00 0.00 86 1018.3
20260505092832 12 262 0.0 0.0 0.00 0.00 0.00 85 1018.2
20260505091827 13 262 0.0 0.0 0.00 0.00 0.00 85 1018.0
20260505090823 13 264 0.0 0.0 0.00 0.00 0.00 84 1017.9
20260505085823 13 261 0.0 0.0 0.00 0.00 0.00 84 1017.9
20260505084819 13 258 0.0 0.0 0.00 0.00 0.00 84 1017.9
20260505083814 13 257 0.0 1.6 0.00 0.00 0.00 84 1017.8
20260505082814 13 255 0.0 0.0 0.00 0.00 0.00 84 1017.7
20260505081813 13 255 0.0 0.0 0.00 0.00 0.00 85 1017.8
20260505080812 13 255 0.0 0.0 0.00 0.00 0.00 86 1017.6
20260505075809 13 255 0.0 0.0 0.00 0.00 0.00 86 1017.6
20260505074804 13 255 0.0 0.0 0.00 0.00 0.00 87 1017.5
20260505073804 13 255 0.0 0.0 0.00 0.00 0.00 86 1017.3
20260505072759 13 255 0.0 0.0 0.00 0.00 0.00 85 1016.9
20260505071756 13 255 0.0 0.0 0.00 0.00 0.00 85 1016.8
20260505070751 13 262 0.0 0.0 0.00 0.00 0.00 84 1016.9
20260505065748 14 256 0.0 0.0 0.00 0.00 0.00 83 1016.9
20260505064749 14 257 0.0 0.0 0.00 0.00 0.00 82 1016.6
20260505063743 15 254 0.0 0.0 0.00 0.00 0.00 82 1016.4
20260505062742 15 258 0.0 0.0 0.00 0.00 0.00 81 1016.2
20260505061742 15 253 0.0 0.0 0.00 0.00 0.00 81 1016.2
20260505060737 15 253 0.0 0.0 0.00 0.00 0.00 81 1016.1
20260505055735 15 253 0.0 0.0 0.00 0.00 0.00 80 1016.2
20260505054735 16 253 0.0 0.0 0.00 0.00 0.00 81 1016.0
20260505053732 16 254 0.0 0.0 0.00 0.00 0.00 82 1016.0
20260505052731 16 254 0.0 0.0 0.00 0.00 0.00 82 1015.8
20260505051730 16 254 0.0 0.0 0.00 0.00 0.00 82 1015.8
20260505050726 16 254 0.0 0.0 0.00 0.00 0.00 82 1015.8
20260505041723 17 253 0.0 0.0 0.00 0.00 0.00 78 1015.2
20260505040718 18 254 0.0 0.0 0.00 0.00 0.00 77 1015.0
20260505035717 18 254 0.0 0.0 0.00 0.00 0.00 76 1014.9
20260505034715 18 253 0.0 0.0 0.00 0.00 0.00 77 1014.8
20260505033714 18 254 0.0 0.0 0.00 0.00 0.00 76 1014.6
20260505032710 19 255 0.0 0.0 0.00 0.00 0.00 75 1014.4
20260505031709 20 255 0.0 0.0 0.00 0.00 0.00 75 1014.2
20260505030708 20 255 0.0 0.0 0.00 0.00 0.00 74 1014.2
20260505025706 20 260 0.0 0.0 0.00 0.00 0.00 73 1013.9
20260505024703 21 253 0.0 0.0 0.00 0.00 0.00 72 1013.9
20260505023657 21 256 0.0 0.0 0.00 0.00 0.00 72 1014.1
20260505022657 22 258 0.0 0.0 0.00 0.00 0.00 70 1013.7
20260505021656 22 260 0.0 0.0 0.00 0.00 0.00 68 1013.9
20260505020655 22 256 0.0 0.0 0.00 0.00 0.00 66 1013.7
20260505015654 23 246 0.0 0.0 0.00 0.00 0.00 63 1013.7
20260505014653 24 259 0.0 0.0 0.00 0.00 0.00 61 1013.7
20260505013653 25 258 0.0 0.0 0.00 0.00 0.00 58 1013.8
20260505012649 26 260 0.0 0.0 0.00 0.00 0.00 55 1013.8
20260505011647 26 256 0.0 0.0 0.00 0.00 0.00 56 1014.0
20260505010645 25 244 1.6 3.2 0.00 0.00 0.00 55 1014.1
20260505005643 26 259 0.0 1.6 0.00 0.00 0.00 55 1014.2
20260505004638 27 260 0.0 0.0 0.00 0.00 0.00 53 1014.4
20260505003637 28 257 0.0 0.0 0.00 0.00 0.00 50 1014.2
20260505002637 27 256 0.0 1.6 0.00 0.00 0.00 53 1014.2
20260505001632 26 257 0.0 3.2 0.00 0.00 0.00 55 1014.0
20260505000632 27 264 0.0 1.6 0.00 0.00 0.00 52 1014.4
20260504235632 27 261 0.0 0.0 0.00 0.00 0.00 52 1014.6
20260504234632 26 260 0.0 3.2 0.00 0.00 0.00 54 1014.5
20260504233630 27 260 0.0 0.0 0.00 0.00 0.00 51 1014.5
20260504232631 26 266 1.6 1.6 0.00 0.00 0.00 53 1014.6
20260504231630 27 259 0.0 1.6 0.00 0.00 0.00 50 1014.6
20260504230628 27 260 0.0 1.6 0.00 0.00 0.00 50 1014.4
20260504225625 26 257 0.0 0.0 0.00 0.00 0.00 53 1014.9
20260504224623 26 256 1.6 1.6 0.00 0.00 0.00 53 1014.8
20260504223623 26 257 0.0 1.6 0.00 0.00 0.00 53 1015.0
20260504222622 25 255 0.0 1.6 0.00 0.00 0.00 56 1015.0
20260504221622 25 260 1.6 1.6 0.00 0.00 0.00 54 1015.1
20260504220621 25 262 0.0 1.6 0.00 0.00 0.00 56 1015.4
20260504215620 23 257 0.0 3.2 0.00 0.00 0.00 56 1015.5
20260504214620 23 255 0.0 1.6 0.00 0.00 0.00 57 1015.4
20260504213619 22 272 0.0 1.6 0.00 0.00 0.00 60 1015.5
20260504212617 23 260 0.0 3.2 0.00 0.00 0.00 61 1015.9
20260504211612 22 258 0.0 3.2 0.00 0.00 0.00 60 1016.0
20260504210612 22 279 0.0 0.0 0.00 0.00 0.00 60 1016.2
20260504205612 22 258 0.0 3.2 0.00 0.00 0.00 59 1016.3
20260504204607 21 293 1.6 3.2 0.00 0.00 0.00 62 1016.5
20260504203604 22 263 0.0 1.6 0.00 0.00 0.00 60 1016.6
20260504202602 21 261 0.0 0.0 0.00 0.00 0.00 65 1016.8
20260504201602 20 261 1.6 1.6 0.00 0.00 0.00 65 1016.6
20260504200602 20 260 0.0 3.2 0.00 0.00 0.00 66 1016.8
20260504195600 20 261 0.0 1.6 0.00 0.00 0.00 65 1017.1
20260504194559 20 261 1.6 3.2 0.00 0.00 0.00 66 1017.0
20260504193557 19 270 0.0 3.2 0.00 0.00 0.00 68 1017.3
20260504192554 18 238 0.0 4.8 0.00 0.00 0.00 71 1017.3
20260504191549 17 257 0.0 0.0 0.00 0.00 0.00 74 1017.5
20260504190548 17 268 0.0 0.0 0.00 0.00 0.00 74 1017.6
20260504185547 16 258 0.0 1.6 0.00 0.00 0.00 75 1017.6
20260504184545 16 274 3.2 3.2 0.00 0.00 0.00 75 1017.9
20260504183543 16 259 0.0 1.6 0.00 0.00 0.00 76 1017.9
20260504182538 16 257 1.6 3.2 0.00 0.00 0.00 76 1017.6
20260504181538 16 262 0.0 0.0 0.00 0.00 0.00 76 1017.3
20260504180535 15 263 0.0 1.6 0.00 0.00 0.00 78 1017.5
20260504175530 16 261 1.6 4.8 0.00 0.00 0.00 77 1017.6
20260504174525 15 258 0.0 1.6 0.00 0.00 0.00 78 1017.8
20260504173524 15 260 1.6 3.2 0.00 0.00 0.00 80 1017.7
20260504172524 15 258 0.0 1.6 0.00 0.00 0.00 81 1017.6
20260504171523 15 257 0.0 3.2 0.00 0.00 0.00 81 1017.4
20260504170521 14 262 0.0 1.6 0.00 0.00 0.00 82 1017.5
20260504150501 13 257 0.0 0.0 0.00 0.00 0.00 87 1016.9
20260504140452 11 255 0.0 0.0 0.00 0.00 0.00 92 1016.0
20260504130435 11 261 0.0 0.0 0.00 0.00 0.00 91 1015.5